Regional Weather Roundup
Issued by NWS Nashville, TN

Home | Current Version | Previous Version | Text Only | Print | Product List | Glossary On
Versions: 1 2 3 4 5 6 7 8 9 10 11 12 13 14 15 16 17 18 19 20 21 22 23 24 25 26 27 28 29 30 31 32 33 34 35 36 37 38 39 40 41 42 43 44 45 46 47 48 49 50
000
ASUS44 KOHX 251315
RWROHX
MIDDLE TENNESSEE HOURLY WEATHER ROUNDUP
NATIONAL WEATHER SERVICE NASHVILLE TN
700 AM CST SUN JAN 25 2015

NOTE: "FAIR" INDICATES FEW OR NO CLOUDS BELOW 12,000 FEET WITH
NO SIGNIFICANT WEATHER AND/OR OBSTRUCTIONS TO VISIBILITY.

* THESE REPORTS ARE NOT UNDER NWS QUALITY CONTROL AND MAY NOT
  REPORT WEATHER SUCH AS PRECIPITATION AND FOG.


TNZ005>011-023>034-057-059-062>066-078-080-251400
...NORTHERN MIDDLE TENNESSEE...

CITY           SKY/WX    TMP DP  RH WIND       PRES   REMARKS
CLARKSVILLE    PTCLDY    39  32  76 S9        29.75S WCI  33
CROSSVILLE     PTCLDY    32  28  85 S5        29.83S WCI  27
GALLATIN         N/A     30  29  96 CALM      29.81S
DICKSON        PTCLDY    36  30  80 SW12      29.77S WCI  27
LEBANON        MOCLDY    37  31  79 S9        29.79S WCI  30
LIVINGSTON     PTCLDY    38  32  79 SW7       29.80R WCI  33
NASHVILLE      MOCLDY    32  30  92 S8        29.81S WCI  25
WEST NASHVILLE   N/A     36  32  87 SE3       29.80S
PORTLAND       MOCLDY    34  30  86 S13       29.75F WCI  25
SMYRNA         MOCLDY    32  30  92 S3        29.84R
SPARTA         CLEAR     34  30  86 S5        29.80F WCI  30
$$
TNZ056-058-060-061-075>077-079-093>097-251400
...SOUTHERN MIDDLE TENNESSEE...

CITY           SKY/WX    TMP DP  RH WIND       PRES   REMARKS
COLUMBIA         N/A     36  36 100 S6        29.81S WCI  31
LEWISBURG      MOCLDY    36  30  79 S7        29.82S WCI  30
MCMINNVILLE    CLEAR     37  30  75 S3        29.83S
MURFREESBORO   MOCLDY    36  31  82 S6        29.82R WCI  31
SHELBYVILLE    CLEAR     36  30  80 S8        29.85S WCI  29
TULLAHOMA      CLEAR     34  28  80 S7        29.85S WCI  28
WINCHESTER     CLEAR     30  28  93 SE7       29.86F WCI  23
$$


...KEY TO REMARKS...
VSB - VISIBILITY IN MILES
WCI - WIND CHILL INDEX
HX  - HEAT INDEX




USA.gov is the U.S. government's official web portal to all federal, state and local government web resources and services.